Location: Unspecified
(48.5910°N, 12.0210°E)
Time: 12:34:35
(UTC+00:00)

Daily predictions for brighter satellites

Satellite Brightness Start Highest point End
(mag) Time Altitude Azimuth Time Altitude Azimuth Time Altitude Azimuth
Cosmos 1400 Rocket 3.9 19:55:46 10° SSW 19:59:42 49° WNW 20:03:35 10° N
Cosmos 2285 Rocket 4.1 19:54:52 10° S 20:01:05 62° ESE 20:07:19 10° NNE
Cosmos 724 4.4 19:55:44 10° NW 20:01:46 88° NE 20:07:54 10° SE
NOSS 5 (C) 4.3 19:58:48 10° SW 20:02:25 87° NW 20:05:29 10° NE
Cosmos 1048 Rocket 4.1 19:58:05 10° SSW 20:03:23 78° ESE 20:08:47 10° NNE
CSL-04 DEB 4.5 19:59:56 10° SSE 20:03:48 63° ENE 20:07:43 10° N
Cosmos 1346 Rocket 2.8 20:01:46 10° N 20:05:46 83° ENE 20:09:48 10° SSE
Meteor 2-5 Rocket 4.0 20:01:00 10° SSW 20:06:57 83° WNW 20:12:54 10° N
Cosmos 2082 Rocket 4.0 20:03:15 10° N 20:07:37 22° NE 20:11:56 10° E
SL-08 RB Rocket 3.9 20:04:34 10° S 20:09:14 79° WSW 20:13:57 10° NNW
Cosmos 2221 4.2 20:07:45 10° NNE 20:11:04 21° ENE 20:14:22 10° ESE
Cosmos 1833 Rocket 4.3 20:09:00 10° N 20:13:33 24° NE 20:18:06 10° E
Cosmos 1825 Rocket 4.2 20:11:57 10° SSW 20:16:21 60° WNW 20:20:48 10° N
Cosmos 921 Rocket 3.1 20:12:49 10° NNW 20:17:19 89° ENE 20:21:50 10° SSE
KORONAS-FOTON 4.4 20:13:45 10° SSE 20:17:24 40° E 20:21:05 10° NNE
Cosmos 2263 Rocket 3.7 20:12:53 10° WSW 20:18:15 41° NW 20:23:37 10° NNE
S3M 4.5 20:12:42 10° SSE 20:18:43 46° E 20:24:46 10° NNE
Meteor 2-1 Rocket 4.4 20:14:32 10° N 20:20:30 77° ENE 20:26:25 10° SSE
Landsat 7 4.1 20:19:22 10° SSE 20:24:01 57° ENE 20:28:42 10° N
CZ-2C R/B 4.1 20:23:37 10° NE 20:27:32 20° E 20:31:01 11° SE
USA 238 DEB 3.9 20:20:27 10° NW 20:27:35 81° SW 20:34:28 12° SSE
USA 238 3.9 20:20:34 10° NW 20:27:42 82° SW 20:34:34 12° SE
ATLAS 3B R/B 2.7 20:22:33 10° NW 20:29:16 84° NE 20:35:28 12° SE
Meteor 1-29 4.3 20:30:23 10° NE 20:33:12 23° E 20:35:14 14° SE
Cosmos 1908 3.6 20:34:19 10° NNW 20:38:09 65° W 20:41:59 10° S
APEX 3.0 20:35:42 10° NNW 20:38:38 60° ENE 20:41:18 15° SE
Cosmos 1110 Rocket 4.3 20:35:17 10° NNW 20:40:25 64° WSW 20:45:20 11° S
NOSS 3-2 (A) 4.1 20:33:14 10° NW 20:40:40 85° NE 20:48:10 13° SE
Cosmos 1553 Rocket 3.9 20:36:34 10° S 20:42:37 77° E 20:48:43 10° NNE
Terra 2.1 20:39:19 13° SSE 20:43:24 58° ENE 20:48:05 10° N
Spot 1 4.4 20:40:33 14° SSE 20:44:13 59° ENE 20:48:46 10° N
SPOT 1/Viking Rocket 3.6 20:39:48 11° SSE 20:44:50 80° WSW 20:50:01 10° NNW
CARTOSAT-1 3.7 20:41:31 14° SSE 20:45:10 67° ENE 20:49:30 10° N
H-2A R/B 3.2 20:40:22 10° SSW 20:45:20 40° W 20:50:26 10° NNW
Cosmos 1461 4.4 20:42:44 14° SSE 20:45:34 23° ESE 20:49:19 10° ENE
Cosmos 220 Rocket 4.3 20:46:47 11° S 20:50:43 46° ESE 20:54:46 10° NE
Cosmos 1340 2.9 20:51:56 10° NNW 20:55:42 66° W 20:58:50 14° S
IGS 5A 3.4 20:53:16 15° SSE 20:56:37 88° ENE 21:00:48 10° NNW
Cosmos 1626 3.4 20:55:47 17° SE 20:57:39 26° E 21:00:48 10° NNE
ATLAS 2AS CENTAUR R/B 3.1 20:50:17 10° SW 20:58:13 88° SE 21:06:25 10° NE
Meteor 1-21 Rocket 4.4 20:53:39 10° S 20:59:27 67° E 21:05:12 10° NNE
YAOGAN 11 4.4 20:56:35 17° SSE 21:00:02 61° ENE 21:04:32 10° N
DMSP B5D2-2 4.3 20:55:29 10° N 21:00:44 72° WNW 21:05:56 10° SSW
Cosmos 1386 Rocket 4.4 20:56:15 10° N 21:02:25 87° E 21:07:33 15° S
NOSS 3-2 (C) 4.1 20:57:34 10° NW 21:05:01 88° NE 21:11:56 16° SE
Cosmos 494 Rocket 4.2 21:00:24 10° SSW 21:05:39 77° WNW 21:10:58 10° NNE
Cosmos 2278 Rocket 2.5 21:03:02 12° S 21:08:06 48° ESE 21:13:32 10° NE
Cosmos 1076 Rocket 4.3 21:05:52 19° SE 21:08:18 35° E 21:12:11 10° NNE
Cosmos 1455 3.9 21:05:34 10° NNE 21:08:32 21° ENE 21:10:36 14° ESE
Cosmos 1842 Rocket 3.9 21:04:21 10° NNW 21:08:38 61° W 21:12:14 14° S
Cosmos 1300 2.6 21:05:25 10° N 21:09:16 88° W 21:11:51 20° S
Cosmos 1674 4.1 21:07:59 10° SW 21:11:33 37° WNW 21:15:10 10° N
COSMOS 2406 4.0 21:10:11 10° NW 21:15:39 44° WSW 21:20:12 14° S
SPOT 5 4.0 21:10:54 10° SSW 21:15:40 42° W 21:20:43 10° NNW
SL-27 R/B 3.7 21:18:11 10° N 21:21:33 34° ENE 21:23:36 19° ESE
Mayak 0.9 21:20:03 10° ENE 21:21:57 13° E 21:23:11 12° ESE
Iridium 67 3.7 21:20:26 10° N 21:21:39 37° NNE 21:21:39 37° NNE
Cosmos 1302 Rocket 4.4 21:16:58 10° NNW 21:22:10 56° WSW 21:26:00 18° S
Helios 1A 4.5 21:19:25 10° SSW 21:23:05 31° W 21:26:50 10° NNW
Aureole 3 Rocket 4.4 21:17:20 16° SSE 21:23:15 54° E 21:28:42 10° NNE
H-2A R/B 4.3 21:22:46 10° E 21:24:43 13° ENE 21:26:40 10° NNE
Lacrosse 5 2.5 21:20:31 10° WSW 21:25:32 60° NNW 21:30:34 10° NE
Cosmos 1726 4.1 21:25:25 10° NW 21:28:29 24° W 21:31:31 10° SW
Cosmos 2251 Rocket 3.5 21:24:31 10° SSW 21:29:53 90° WNW 21:35:15 10° NNE
Cosmos 1844 4.3 21:24:17 10° SW 21:29:54 59° WNW 21:35:39 10° NNE
CZ-2C R/B 3.5 21:25:30 18° S 21:30:00 70° WSW 21:35:46 10° NNW
Helios 1B rocket 3.0 21:26:09 10° N 21:30:13 57° WNW 21:34:13 10° SSW
SL-8 R/B 3.7 21:26:04 10° WSW 21:30:49 62° SSE 21:35:36 10° E
Cosmos 1844 Rocket 3.8 21:25:25 10° SW 21:30:52 47° NW 21:36:20 10° NNE
NOSS 2-2 (E) 4.0 21:32:53 26° SSE 21:34:28 36° ESE 21:38:37 10° NE
NOSS 3-4 (A) 3.6 21:29:15 10° SSW 21:35:16 57° ESE 21:41:36 10° NE
NOSS 3-4 (C) 3.6 21:29:21 10° SSW 21:35:21 57° ESE 21:41:41 10° NE
Okean 3 Rocket 3.7 21:33:56 24° SSE 21:36:25 60° E 21:40:44 10° NNE
CENTAUR R/B 3.2 21:30:43 10° NW 21:38:32 78° NE 21:45:40 16° SE
ADEOS Rocket 4.2 21:35:02 10° NE 21:39:56 26° E 21:43:03 18° SE
Cosmos 1992 Rocket 4.0 21:35:48 10° NNW 21:41:02 81° ENE 21:44:14 24° SSE
SL-14 R/B 4.1 21:40:40 14° SSW 21:43:52 48° WNW 21:47:42 10° N
Cosmos 1441 Rocket 4.3 21:41:13 10° N 21:44:43 33° ENE 21:46:24 22° ESE
Meteor 1-27 4.5 21:39:15 10° N 21:45:04 64° ENE 21:48:45 23° SSE
Cosmos 2058 4.1 21:47:07 23° SE 21:48:36 29° E 21:52:12 10° NNE
Cosmos 2221 3.4 21:44:45 10° NNW 21:48:52 43° W 21:51:37 19° SSW
Cosmos 2297 4.3 21:46:50 24° SSE 21:49:44 40° ESE 21:55:02 10° NE
ATLAS 5 CENTAUR R/B 2.0 21:49:29 25° S 21:51:50 47° ESE 21:56:36 10° NE
Cosmos 2082 Rocket 2.2 21:46:45 10° NNW 21:52:32 90° ENE 21:56:02 25° SSE
Cosmos 405 Rocket 3.8 21:50:55 10° N 21:54:17 32° ENE 21:55:49 23° ESE
Cosmos 1328 Rocket 4.1 21:51:42 10° N 21:55:55 47° ENE 21:57:59 26° SE
SAR-Lupe-4 3.5 21:56:32 35° S 21:57:57 84° WSW 22:01:34 10° NNW
Cosmos 1833 Rocket 2.7 21:52:28 10° NNW 21:58:06 75° WSW 22:01:21 26° SSE
NOSS 2-2 (D) 3.4 22:02:52 29° SSW 22:04:42 57° SE 22:09:09 10° NE
CZ-2C R/B 2.9 22:02:54 10° N 22:08:22 68° WNW 22:12:32 17° SSW
COBE Rocket 4.0 22:04:02 10° NNE 22:09:07 87° WNW 22:12:22 23° SSW
Cosmos 1703 3.1 22:09:52 34° S 22:11:31 87° E 22:15:26 10° N
Cosmos 407 Rocket 4.3 22:10:03 26° SE 22:12:00 35° ESE 22:16:41 10° NE
Cosmos 1869 4.3 22:10:45 10° N 22:14:30 37° ENE 22:16:08 25° ESE
SAR-Lupe-1 4.3 22:14:47 37° SSW 22:16:00 61° WSW 22:19:35 10° NNW
ATLAS 3B R/B 4.1 22:14:13 10° WNW 22:19:11 23° WSW 22:22:42 15° SSW
Cosmos 2074 Rocket 4.0 22:13:50 10° N 22:20:08 89° ENE 22:23:50 27° S
COSMOS 2487 4.1 22:17:55 10° N 22:20:59 27° ENE 22:22:41 19° ESE
Terra 3.8 22:18:12 10° SW 22:21:31 19° W 22:24:56 10° NW
Cosmos 1190 Rocket 4.5 22:21:29 29° SSE 22:23:39 45° ESE 22:28:36 10° NNE
Cosmos 1943 Rocket 4.2 22:22:09 11° ESE 22:23:50 12° E 22:26:04 10° ENE
Cosmos 1461 3.7 22:19:44 10° SW 22:24:23 61° NW 22:29:09 10° NNE
RESURS DK-1 2.3 22:22:48 35° S 22:24:26 67° ESE 22:28:34 10° NE
Cosmos 332 Rocket 4.3 22:21:42 10° NNW 22:26:34 56° ENE 22:29:18 25° SE
Cosmos 1500 Rocket 4.2 22:25:42 30° SE 22:27:11 40° E 22:31:15 10° NNE
SL-19 R/B 4.1 22:23:37 10° NNE 22:29:12 76° ESE 22:32:04 28° S
NOSS 2-2 (C) 3.4 22:28:15 22° SW 22:30:46 85° NW 22:35:24 10° NE
Cosmos 1626 4.0 22:30:23 13° WSW 22:32:56 25° WNW 22:36:06 10° NNW
ALOS 2 2.5 22:32:37 35° SSE 22:34:27 88° E 22:38:53 10° NNW
Meteor 2-14 Rocket 4.5 22:32:18 10° N 22:38:24 76° E 22:41:46 28° SSE
Cosmos 1455 3.4 22:40:53 10° NNW 22:44:15 32° W 22:45:34 25° SW
Cosmos 1151 Rocket 2.9 22:41:07 10° NNW 22:45:26 78° W 22:47:00 38° S
Cosmos 1766 Rocket 4.4 22:43:21 22° SW 22:45:52 45° WNW 22:50:12 10° N
Meteor 2-21 4.4 22:40:16 10° NNW 22:46:21 80° W 22:49:37 29° S
Cosmos 1408 Rocket 4.1 22:44:11 26° SW 22:46:27 54° WNW 22:50:52 10° N
Cosmos 1610 Rocket 4.5 22:41:14 10° N 22:47:31 86° W 22:50:56 29° S
Cosmos 1515 Rocket 3.6 22:47:18 10° NNW 22:51:43 69° W 22:53:25 36° SSW
Cosmos 2278 Rocket 3.7 22:47:11 10° WSW 22:52:21 35° NW 22:57:34 10° NNE
CZ-4C R/B 3.4 22:54:06 41° S 22:55:21 67° WSW 22:59:10 10° NNW
SL-27 R/B 4.3 22:53:47 10° NW 22:56:32 20° W 22:57:13 19° WSW
Cosmos 2184 Rocket 4.4 22:50:50 10° NNW 22:56:59 53° W 23:00:32 25° SSW
Mayak -1.1 22:53:54 10° N 22:58:03 70° WNW 22:59:48 34° SSW
H-2A R/B 1.9 22:58:45 40° S 23:00:09 78° WSW 23:04:17 10° NNW
Cosmos 2154 Rocket 4.0 22:57:37 10° NNW 23:04:00 79° W 23:07:30 29° S
BREEZE-M DEB (TANK) 1.7 23:03:27 10° W 23:06:17 70° N 23:06:55 40° ENE
Cosmos 1892 4.1 23:06:48 23° ESE 23:07:50 26° E 23:11:02 10° NNE
Lacrosse 5 3.7 23:04:42 10° WNW 23:09:16 32° N 23:13:50 10° ENE
Meteor 2-10 Rocket 3.7 23:05:58 10° NNW 23:11:00 59° W 23:13:21 31° SSW
Cosmos 2181 Rocket 4.3 23:09:12 27° SSE 23:12:37 57° E 23:18:43 10° NNE
MOS 1 Rocket 4.4 23:08:35 10° NNE 23:13:08 34° E 23:15:05 24° SE
SL-8 R/B 3.6 23:08:27 10° W 23:13:19 90° WNW 23:18:11 10° E
Cosmos 2151 3.7 23:11:40 26° SW 23:13:36 45° WNW 23:17:42 10° N
Cosmos 1933 4.2 23:10:55 10° N 23:14:46 42° ENE 23:16:28 27° SE
CZ-4B R/B 3.6 23:09:52 10° NNE 23:15:11 80° WNW 23:17:55 29° SSW
Cosmos 2341 Rocket 4.0 23:10:57 10° N 23:17:21 90° E 23:20:57 28° S
deb Chang Zheng 4 3.6 23:14:16 10° NNE 23:18:40 69° ESE 23:20:19 37° S
Cosmos 2228 Rocket 4.1 23:17:28 10° NNW 23:21:35 36° W 23:23:12 27° SW
Cosmos 2369 Rocket 2.6 23:20:09 30° SSE 23:22:35 47° ESE 23:27:59 10° NE
Cosmos 304 Rocket 4.0 23:19:42 10° NNW 23:24:30 68° ENE 23:27:08 26° SE
Cosmos 2058 4.5 23:23:19 18° WSW 23:25:30 28° WNW 23:29:06 10° NNW
ADEOS Rocket 3.4 23:20:05 10° N 23:25:48 59° WNW 23:30:00 21° SW
Cosmos 962 Rocket 4.5 23:19:44 10° NNW 23:25:58 77° W 23:29:17 29° S
Cosmos 1295 Rocket 4.5 23:20:31 10° NNW 23:26:44 79° W 23:30:10 29° S
CENTAUR R/B 3.9 23:21:56 10° NW 23:28:54 34° WSW 23:32:49 23° SSW
Cosmos 2218 Rocket 4.2 23:22:49 10° N 23:28:59 65° ENE 23:32:53 23° SSE
IKONOS-2 4.5 23:28:32 39° S 23:30:01 72° WSW 23:34:17 10° NNW
Cosmos 405 Rocket 4.4 23:27:23 10° NW 23:30:07 20° W 23:30:59 18° WSW
SL-8 Rocket 4.1 23:24:30 10° N 23:30:49 78° E 23:34:34 26° SSE
Cosmos 2082 Rocket 4.1 23:32:27 10° WNW 23:35:47 16° W 23:37:52 13° WSW
ATLAS 5 CENTAUR R/B 3.3 23:32:19 10° WSW 23:36:38 36° NW 23:41:28 10° NNE
Cosmos 1140 Rocket 3.4 23:35:27 30° SSW 23:38:02 82° WNW 23:43:12 10° NNE
USA 234 3.4 23:31:37 10° ENE 23:38:03 56° SE 23:41:53 25° SSW
Cosmos 371 Rocket 4.1 23:33:36 10° NW 23:38:05 37° WSW 23:39:39 29° SW
deb Kosmos-1763 4.1 23:35:38 10° NNW 23:39:25 82° ENE 23:40:42 39° SSE
Cosmos 2208 Rocket 4.4 23:38:40 10° NNW 23:44:02 66° ENE 23:47:57 19° SE
Cosmos 614 Rocket 4.1 23:42:20 27° SW 23:45:07 69° WNW 23:50:16 10° NNE
Cosmos 1818 4.1 23:41:11 10° NW 23:46:39 61° NE 23:52:03 10° SE
Cosmos 1954 Rocket 4.1 23:44:13 28° SW 23:46:59 71° WNW 23:52:11 10° NNE
Cosmos 676 Rocket 4.3 23:45:03 25° SW 23:48:00 62° WNW 23:53:10 10° NNE
Cosmos 1805 Rocket 3.5 23:46:17 36° SSW 23:48:01 81° W 23:52:28 10° N
Orbus 7S? 4.1 23:46:46 16° W 23:48:31 37° NNW 23:51:45 10° NE
CZ-4B R/B 3.2 23:49:30 16° ESE 23:51:11 24° ENE 23:53:46 10° NNE
Sich 1 3.0 23:51:02 36° S 23:52:48 79° E 23:57:13 10° NNE
COSMOS 2487 3.9 23:53:17 10° NW 23:56:11 24° WSW 23:56:23 24° WSW
